Miscellaneous Local Product
Issued by NWS North Platte, NE

Home | Current Version | Previous Version | Text Only | Print | Product List | Glossary On
Versions: 1 2 3 4 5 6 7 8 9 10 11 12 13 14 15 16 17 18 19 20 21 22 23 24 25 26 27 28 29 30 31 32 33 34 35 36 37 38 39 40 41 42 43 44 45 46 47 48 49 50
000
AXUS43 KLBF 272110
MISLBF


WESTERN AND NORTH CENTRAL NEBRASKA HOURLY WEATHER ROUNDUP
NATIONAL WEATHER SERVICE NORTH PLATTE NE
300 PM CST SAT DEC 27 2014

***STATIONS NOT REPORTING VARIABLES SUCH AS SKY/WEATHER OR
PRESSURE ARE PROVIDED BY THE NEBRASKA DEPARTMENT OF
ROADS...RAWS...AND APRS NETWORKS...AND ARE NOT UNDER
NATIONAL WEATHER SERVICE QUALITY CONTROL***

...OBSERVATIONS IN AND NEAR THE EASTERN PANHANDLE OF NEBRASKA...

CITY           SKY/WX    TMP DP  RH WIND       PRES   REMARKS
PINE RIDGE     SUNNY     25  13  60 SW8       30.06F WCI  16
CHADRON        SUNNY     25  13  60 W8        30.08F WCI  16
ALLIANCE       SUNNY     20  11  68 W15       30.06F WCI   6
SIDNEY         SUNNY     18   9  68 SW9       30.10F WCI   7
WHITECLAY        N/A     27  11  51 W9          N/A  WCI  18
CRESCENT LAKE    N/A     24  12  59 NW9G16      N/A  WCI  14
LISCO            N/A     23   9  55 S5          N/A  WCI  16
BIG SPRINGS      N/A     22  13  67 W9          N/A  WCI  12
$$

...OBSERVATIONS IN NORTH CENTRAL NEBRASKA...

CITY           SKY/WX    TMP DP  RH WIND       PRES   REMARKS
VALENTINE      SUNNY     23  14  68 SW8       30.10F WCI  14
THEDFORD       SUNNY     29  19  65 W10       30.12S WCI  20
AINSWORTH      SUNNY     23  15  71 W7        30.11S WCI  15
O`NEILL        SUNNY     23  18  81 SW7       30.14F WCI  15
ORD            SUNNY     24  16  71 W7        30.16F WCI  16
BROKEN BOW     SUNNY     24  15  68 W8        30.15F WCI  15
BROWNLEE         N/A     25  12  58 SW7         N/A  WCI  17
SPRINGVIEW       N/A     28  20  70 W7          N/A  WCI  21
BREWSTER         N/A     29  19  68 W8          N/A  WCI  21
ROSE             N/A     28  22  78 S6          N/A  WCI  21
SARGENT          N/A     24  18  76 W8          N/A  WCI  15
COMSTOCK         N/A     30  19  64 W7          N/A  WCI  23
CHAMBERS         N/A     24  13  61 W3          N/A
EWING            N/A     24  19  79 CALM        N/A
$$

...OBSERVATIONS IN SOUTHWEST NEBRASKA AND FAR NORTHEAST COLORADO...

CITY           SKY/WX    TMP DP  RH WIND       PRES   REMARKS
WRAY           FAIR      30  15  53 W6        30.15F WCI  24
HOLYOKE        FAIR      32  14  47 W6        30.14S WCI  26
IMPERIAL       SUNNY     27  14  58 W9        30.16S WCI  18
OGALLALA       SUNNY     26  12  57 W6        30.14F WCI  19
NORTH PLATTE   SUNNY     22  13  68 W8        30.15F WCI  12
MCCOOK         SUNNY     25  15  66 W8        30.20S WCI  16
LEXINGTON      SUNNY     26  18  71 W5        30.18S WCI  21
PAXTON           N/A     23  16  74 SW7         N/A  WCI  15
BRADY            N/A     24  17  74 CALM        N/A
GOTHENBURG       N/A     28  18  65 W6          N/A  WCI  22
CALLAWAY         N/A     22  19  86 W8          N/A  WCI  13
$$

...NORTH PLATTE AREA...

CITY           SKY/WX    TMP DP  RH WIND       PRES   REMARKS
AIRPORT        SUNNY     22  13  68 W8        30.15F WCI  12
DOWNTOWN         N/A     24  16  72 CALM        N/A
$$

...SOME WEATHER OBSERVATIONS FROM AROUND THE REGION...

CITY           SKY/WX    TMP DP  RH WIND       PRES   REMARKS
DENVER         MOSUNNY   26  13  57 SE13      30.05F WCI  15
LARAMIE        SUNNY     16   5  62 SW24      29.97F WCI  -2
CHEYENNE       SUNNY     20   5  52 SW13      30.01F WCI   7
SCOTTSBLUFF    SUNNY     17   9  70 NW7       30.08F WCI   8
RAPID CITY     SUNNY     22  14  71 E3        30.03F
PIERRE         SUNNY     26  18  71 SW10      30.08F WCI  16
WINNER         FAIR      24  15  68 W10       30.12F WCI  14
SIOUX FALLS    SUNNY     15   9  76 W7        30.14F WCI   5
OMAHA          MOSUNNY   27  17  66 W8        30.24S WCI  19
GRAND ISLAND   SUNNY     25  15  66 W9        30.21F WCI  15
KANSAS CITY    CLOUDY    31  21  66 NW9       30.22R WCI  23
WICHITA        MOSUNNY   36  17  46 N12       30.27S WCI  28
HAYS           SUNNY     30  12  47 NW9       30.25S WCI  22
LIBERAL        SUNNY     34  18  51 NW9       30.26S WCI  26
GOODLAND       SUNNY     27  16  63 NW10      30.16F WCI  17
$$



USA.gov is the U.S. government's official web portal to all federal, state and local government web resources and services.